Location: Valencia
(39.4670°N, 0.3670°W)
Time: 18:18:38
(UTC+02:00)

ISS - Pass Details

Date: 09 August 2017
Orbit: 401 x 408 km, 51.6° (Epoch: 19 August)

Event Time Altitude Azimuth Distance (km) Brightness Sun altitude
Rises 22:59:09 0° 305° (NW) 2,314 1.6 -19.7°
Reaches altitude 10° 23:01:15 10° 302° (WNW) 1,452 0.1 -20.0°
Enters shadow 23:04:13 58° 246° (WSW) 470 -3.5 -20.4°
